TimeCST,TemperatureF,Dew PointF,Humidity,Sea Level PressureIn,VisibilityMPH,Wind Direction,Wind SpeedMPH,Gust SpeedMPH,PrecipitationIn,Events,Conditions,WindDirDegrees,DateUTC
12:52 AM,25.0,18.0,75,30.21,10.0,WNW,6.9,-,N/A,,Clear,290,2013-01-05 06:52:00
1:52 AM,24.1,18.0,77,30.20,10.0,WNW,4.6,-,N/A,,Clear,290,2013-01-05 07:52:00
2:52 AM,19.0,14.0,81,30.23,10.0,Calm,Calm,-,N/A,,Clear,0,2013-01-05 08:52:00
3:52 AM,21.0,17.1,85,30.23,10.0,SW,4.6,-,N/A,,Clear,230,2013-01-05 09:52:00
4:52 AM,19.9,16.0,85,30.21,10.0,WSW,3.5,-,N/A,,Clear,240,2013-01-05 10:52:00
5:52 AM,19.9,17.1,89,30.19,10.0,Calm,Calm,-,N/A,,Partly Cloudy,0,2013-01-05 11:52:00
6:52 AM,19.9,16.0,85,30.18,10.0,SW,5.8,-,N/A,,Scattered Clouds,220,2013-01-05 12:52:00
7:52 AM,19.9,17.1,89,30.19,6.0,SSW,8.1,-,N/A,,Scattered Clouds,210,2013-01-05 13:52:00
8:52 AM,21.9,19.0,89,30.17,5.0,SW,6.9,-,N/A,,Partly Cloudy,220,2013-01-05 14:52:00
9:52 AM,26.1,21.0,81,30.17,6.0,SSW,6.9,-,N/A,,Haze,200,2013-01-05 15:52:00
10:52 AM,30.0,23.0,75,30.15,8.0,SW,15.0,-,N/A,,Partly Cloudy,220,2013-01-05 16:52:00
11:52 AM,33.1,25.0,72,30.09,9.0,SW,12.7,-,N/A,,Mostly Cloudy,220,2013-01-05 17:52:00
12:52 PM,35.1,27.0,72,30.06,9.0,SW,12.7,-,N/A,,Mostly Cloudy,220,2013-01-05 18:52:00
1:52 PM,36.0,27.0,70,30.03,10.0,SW,11.5,-,N/A,,Mostly Cloudy,220,2013-01-05 19:52:00
2:52 PM,36.0,27.0,70,30.03,10.0,SW,17.3,21.9,N/A,,Overcast,220,2013-01-05 20:52:00
3:23 PM,35.6,26.6,70,29.99,10.0,SW,16.1,21.9,N/A,,Overcast,230,2013-01-05 21:23:00
3:48 PM,35.6,28.4,75,29.98,10.0,SW,13.8,-,N/A,,Overcast,230,2013-01-05 21:48:00
3:52 PM,36.0,28.0,73,30.01,10.0,SW,15.0,-,N/A,,Overcast,230,2013-01-05 21:52:00
4:24 PM,35.6,30.2,81,29.97,2.5,SW,11.5,-,0.00,Snow,Light Snow,230,2013-01-05 22:24:00
4:40 PM,33.8,30.2,87,29.97,3.0,SW,11.5,-,0.00,Snow,Light Snow,230,2013-01-05 22:40:00
4:52 PM,34.0,32.0,92,30.00,3.0,SW,13.8,-,0.00,Snow,Light Snow,220,2013-01-05 22:52:00
4:58 PM,35.6,32.0,87,29.97,3.0,SW,12.7,-,0.00,Snow,Light Snow,220,2013-01-05 22:58:00
5:52 PM,34.0,32.0,92,29.99,3.0,SSW,10.4,-,0.01,Snow,Light Snow,210,2013-01-05 23:52:00
6:52 PM,34.0,32.0,92,29.99,5.0,SW,12.7,-,0.02,Snow,Light Snow,220,2013-01-06 00:52:00
7:52 PM,34.0,32.0,92,29.97,6.0,SW,13.8,-,0.01,Snow,Light Snow,220,2013-01-06 01:52:00
8:52 PM,34.0,33.1,96,29.95,6.0,SW,13.8,-,0.01,,Overcast,220,2013-01-06 02:52:00
9:52 PM,34.0,33.1,96,29.94,3.0,SW,13.8,-,0.00,,Light Drizzle,220,2013-01-06 03:52:00
10:35 PM,33.8,32.0,93,29.91,7.0,SW,12.7,-,0.00,,Overcast,230,2013-01-06 04:35:00
10:52 PM,35.1,32.0,89,29.92,8.0,SW,11.5,-,0.00,,Overcast,230,2013-01-06 04:52:00
11:52 PM,35.1,32.0,89,29.91,7.0,SW,10.4,-,N/A,,Overcast,220,2013-01-06 05:52:00